Theta_e
357 350 352 353 353 345 347 345 347 343 341 338 338 338 338 338 338 336 335 335 335 335 336 336 336 337 336 334 335 334 333 332 329 332 334 338 339 341 346 343 340 340 339
344 341 340 341 339 339 341 337 342 341 341 339 339 338 338 339 337 336 336 337 335 334 335 333 333 336 332 333 333 331 331 333 331 328 333 335 335 336 340 337 339 340 337
343 342 338 330 329 336 338 341 341 340 340 340 339 338 338 338 338 337 336 335 334 333 332 332 332 332 332 332 331 332 332 334 333 332 331 334 335 337 339 341 342 341 340
336 332 330 332 336 338 338 341 341 341 341 340 340 340 338 337 336 335 335 332 330 332 331 331 333 332 331 331 331 331 331 330 330 329 330 332 333 336 335 336 336 339 342
337 336 335 336 335 339 339 340 341 341 341 341 339 336 336 336 336 331 330 330 328 329 330 330 332 333 335 333 331 329 327 327 327 326 327 328 330 330 330 333 333 336 338
336 334 336 334 332 334 334 333 333 333 334 335 334 333 332 334 331 329 330 329 327 327 327 328 329 333 332 330 330 330 329 323 323 323 324 324 325 328 332 331 332 332 330
330 332 332 332 331 332 333 332 331 332 331 329 330 330 330 331 328 326 327 326 325 326 326 327 328 330 330 330 328 328 328 327 327 326 323 323 323 327 329 329 330 331 332
328 329 330 329 329 328 328 328 329 329 329 328 328 329 328 330 325 322 323 324 325 326 327 327 327 327 328 328 327 325 325 326 327 328 326 326 327 330 331 331 331 331 334
326 327 328 328 327 328 327 326 327 328 326 326 327 326 325 327 322 319 319 322 323 323 326 327 327 327 325 321 321 321 320 322 324 322 322 321 321 321 323 324 323 326 327
324 324 325 326 325 325 325 326 326 325 325 325 326 327 326 326 320 315 316 320 320 322 324 326 324 323 318 315 319 319 317 320 320 320 321 322 323 324 322 324 325 322 324
322 322 323 323 322 323 323 324 324 324 325 324 324 326 325 322 318 314 314 318 319 321 321 321 322 317 312 309 309 314 316 317 316 316 318 320 321 322 323 325 326 325 324
320 320 321 321 322 325 323 323 323 323 321 321 320 319 319 319 316 316 312 313 317 319 318 319 320 312 308 307 308 310 309 310 315 317 318 319 320 321 322 323 324 327 332
315 314 316 318 321 320 318 319 320 319 318 317 317 316 317 319 320 315 313 313 315 317 319 318 313 309 307 309 312 311 311 319 319 317 316 317 319 322 324 324 325 327 332
310 310 313 315 316 317 319 318 318 317 316 316 315 315 314 315 316 315 312 311 313 316 318 313 311 310 310 313 315 319 320 320 319 318 317 319 321 321 321 322 323 327 330
310 313 313 313 314 316 315 316 317 315 312 317 312 311 308 309 310 301 300 303 305 305 301 307 314 316 319 318 318 318 318 319 319 319 318 318 320 320 322 326 327 329 328
310 313 314 316 316 317 316 316 313 309 304 299 299 304 305 303 298 297 298 298 299 299 306 316 319 318 317 318 318 318 319 319 320 320 318 316 318 323 323 326 327 327 327
311 313 314 313 313 310 311 312 310 310 307 300 301 300 299 297 297 297 298 298 303 308 318 318 318 318 318 317 315 316 317 318 319 320 319 315 315 317 319 326 324 328 328
312 310 308 311 312 311 311 309 308 308 306 308 306 301 299 297 298 298 299 305 312 314 316 317 313 314 311 310 312 310 309 312 312 313 317 318 314 313 314 315 319 327 326
309 308 307 310 311 309 309 308 307 305 305 304 305 301 300 298 299 300 301 310 310 310 313 315 311 309 307 306 306 307 305 305 305 306 310 317 315 312 311 313 314 311 316
306 310 308 306 305 305 306 305 304 302 301 301 301 300 300 302 301 302 305 306 307 309 311 310 308 306 304 302 301 301 300 300 300 301 302 308 316 314 312 312 312 313 315
302 304 309 305 304 302 302 302 302 301 299 298 298 299 295 299 298 298 300 301 303 306 307 308 305 302 300 297 295 295 294 293 295 297 298 302 306 315 314 313 312 313 313
300 301 301 304 303 302 301 298 297 297 299 298 297 298 295 298 297 297 299 300 302 303 308 307 303 299 296 294 293 292 291 290 291 293 295 300 304 313 315 313 312 312 312
299 300 300 300 300 302 300 298 296 296 296 295 295 295 296 296 297 297 298 300 301 302 304 303 300 296 295 293 292 291 289 288 288 289 293 296 306 316 317 316 314 311 312
299 301 300 299 299 298 299 298 298 296 297 296 295 295 295 298 297 297 298 300 301 302 303 302 298 295 293 291 290 289 288 287 287 290 290 296 312 310 311 317 317 317 315
300 300 299 299 298 297 297 296 297 296 299 298 298 297 298 299 298 298 299 300 300 300 301 299 297 293 291 289 288 287 286 285 286 287 291 299 306 305 304 313 317 317 317
300 300 298 299 297 296 295 295 295 295 295 296 295 295 296 297 297 297 297 297 297 297 297 298 292 289 289 288 287 287 285 285 286 286 290 301 302 302 301 308 312 314 315
Wind_Speed
6 9 9 7 4 4 11 13 15 8 6 6 5 4 6 6 8 5 6 7 7 10 9 6 8 7 6 5 5 5 6 5 10 13 8 6 8 8 6 5 7 6 7
18 16 18 9 5 10 6 8 22 11 5 6 5 6 7 5 7 6 7 7 8 10 10 8 8 8 7 6 6 7 7 10 7 14 12 9 8 8 6 6 7 7 7
4 18 17 3 3 12 15 15 13 6 5 5 5 6 6 6 6 6 7 8 9 8 7 7 9 10 10 8 6 7 8 7 6 7 12 8 8 4 6 7 6 7 7
10 9 7 6 8 11 14 8 4 4 5 5 5 5 6 6 6 6 9 6 6 8 8 9 9 8 9 10 9 9 9 7 6 6 7 8 6 7 5 8 9 5 7
11 11 10 12 13 8 3 6 6 6 6 7 6 6 6 6 7 7 7 8 6 8 8 9 9 10 14 13 9 10 9 7 7 7 6 7 7 6 7 7 7 8 6
6 4 4 2 2 4 3 4 6 6 6 5 6 6 7 7 10 13 10 7 7 8 10 11 10 11 12 15 15 16 12 6 7 6 6 7 8 7 7 7 9 8 12
7 6 5 6 6 5 5 5 5 5 5 6 7 7 7 7 12 13 12 6 7 10 11 11 10 10 11 9 14 14 12 13 15 8 8 9 9 9 7 9 10 10 11
7 7 7 4 3 4 4 6 6 5 6 5 6 7 7 7 12 13 14 8 8 10 11 12 11 12 12 12 10 9 8 7 9 8 9 9 8 9 9 10 11 12 11
5 4 4 5 6 7 8 7 6 4 5 4 5 7 7 9 12 13 11 8 10 12 10 11 10 11 14 13 6 6 7 9 9 13 15 16 17 16 13 8 10 10 13
8 8 8 7 7 7 7 6 4 5 6 5 6 7 9 9 7 10 11 7 10 9 9 9 13 11 12 5 2 4 7 11 9 13 12 13 14 13 17 15 11 11 11
8 8 7 7 7 7 7 6 6 6 6 6 6 8 8 3 6 11 12 8 9 7 6 7 7 12 10 8 9 6 9 11 14 11 12 12 14 14 12 13 15 14 14
7 7 7 7 7 8 8 6 7 6 6 6 5 6 5 5 7 10 12 11 11 8 9 8 8 14 18 16 10 9 12 10 7 10 12 13 14 14 15 14 16 15 16
8 8 9 10 8 6 6 7 5 6 5 5 4 6 7 8 8 12 12 15 16 9 8 8 15 17 17 8 7 8 8 6 9 11 14 16 16 15 16 14 13 17 19
7 7 7 6 10 7 5 5 5 4 4 4 6 7 7 8 8 10 9 10 13 9 7 9 13 16 16 11 6 4 4 6 9 13 14 16 14 9 7 8 10 11 10
7 8 7 6 6 6 5 4 4 4 4 4 4 5 8 8 9 15 11 8 7 8 10 5 4 5 4 1 2 4 6 8 10 13 15 17 5 5 6 6 8 7 8
6 5 5 7 7 6 7 8 9 9 7 8 2 7 7 8 16 17 19 13 5 6 3 4 7 7 5 5 5 7 7 10 10 12 14 17 14 5 6 5 5 6 7
5 5 5 7 5 5 7 8 8 8 4 8 16 11 14 14 15 17 18 15 14 11 7 10 9 9 8 8 8 8 8 9 13 12 9 15 16 13 11 3 4 5 6
4 5 4 5 6 6 7 6 6 6 8 8 9 11 16 18 17 15 18 10 11 10 7 7 7 7 8 8 8 9 10 10 11 11 12 9 13 14 12 12 10 4 3
2 0 2 3 5 5 6 6 6 7 7 7 8 9 12 16 13 14 14 9 8 9 9 6 7 8 8 9 9 9 10 10 10 11 11 9 9 10 12 13 10 12 8
3 5 2 3 2 3 4 5 6 6 7 7 7 9 10 10 11 11 10 10 9 8 8 9 9 9 9 10 10 10 11 11 11 11 12 11 8 8 9 10 12 11 11
5 3 7 4 4 4 3 3 4 4 5 5 6 8 16 8 9 9 9 9 9 9 9 8 9 9 9 10 10 10 10 10 10 11 11 11 10 6 7 8 8 11 9
4 6 2 4 4 5 4 4 3 3 3 4 4 6 12 5 6 7 8 8 9 9 7 7 7 8 8 9 10 11 12 12 11 10 11 12 10 9 2 2 3 3 3
5 5 5 3 1 5 4 4 4 3 1 3 4 3 5 6 6 7 6 5 7 7 9 5 6 6 7 7 8 9 10 11 11 10 11 11 11 11 8 4 2 1 3
6 5 5 5 5 6 6 3 4 4 2 3 3 3 3 3 5 8 8 7 6 6 7 4 6 8 8 9 9 9 9 10 9 10 13 10 10 12 10 10 6 5 3
3 6 6 5 5 5 5 5 5 3 4 3 4 3 4 4 4 5 7 5 8 9 9 7 6 10 12 15 15 17 18 16 14 16 9 9 12 14 12 9 9 9 8
6 6 5 4 4 4 5 5 5 5 5 4 4 5 5 7 8 9 9 10 9 9 11 8 7 12 14 12 16 20 19 20 17 19 11 10 11 10 10 11 13 8 11
Wind_Direction
149 50 10 300 1 342 14 345 325 272 205 231 237 238 257 259 264 267 267 267 266 273 280 271 276 263 268 258 262 256 260 265 276 284 282 272 280 283 272 262 255 261 268
66 66 281 293 49 328 308 247 255 246 226 221 238 250 259 258 267 274 271 276 278 282 282 276 276 283 270 260 256 258 262 264 254 273 278 280 258 269 236 237 253 239 246
194 182 211 192 317 260 248 251 242 240 246 259 252 256 264 270 275 278 269 277 283 280 279 277 278 278 275 273 252 255 266 258 256 260 277 276 275 262 272 260 236 239 236
172 167 171 193 228 238 230 243 289 285 282 281 279 282 299 287 290 281 281 288 299 300 285 277 273 260 258 269 267 264 264 264 264 260 268 275 266 271 250 273 279 245 260
168 167 174 201 216 229 312 326 312 324 322 324 327 300 289 299 295 291 287 298 288 292 287 281 279 266 261 261 265 272 272 269 273 267 267 276 273 278 265 274 266 280 260
88 122 158 132 50 24 344 327 338 328 330 343 322 318 307 296 287 286 288 291 290 286 290 288 278 266 268 267 265 262 250 241 256 265 259 254 272 265 268 268 277 278 280
76 68 54 39 21 352 332 334 328 341 331 317 313 304 293 282 281 284 289 287 282 288 283 281 280 278 275 275 275 275 270 232 231 240 250 250 268 269 263 264 262 262 263
46 36 26 15 328 309 333 347 337 313 309 305 291 283 282 285 289 299 302 300 285 280 278 277 270 274 274 271 272 270 271 267 254 234 231 249 249 255 248 258 261 269 271
52 38 7 360 357 359 354 330 311 323 307 283 285 293 291 294 298 311 326 314 301 290 283 278 273 272 271 272 257 267 285 281 274 263 256 251 252 247 238 264 260 254 264
22 6 357 358 355 336 312 318 299 299 285 294 301 296 287 292 327 352 343 326 312 302 293 284 276 271 282 257 250 273 277 278 283 292 286 278 263 251 236 233 238 242 246
6 353 341 337 327 313 313 299 287 297 296 300 303 296 293 341 337 346 335 340 322 313 308 308 302 307 317 278 224 244 270 288 296 289 280 276 271 258 251 240 232 225 235
353 344 335 327 317 309 295 294 305 301 308 315 310 309 321 346 345 315 320 317 321 307 304 299 298 316 306 304 308 295 296 297 272 274 270 267 267 255 251 243 241 239 236
8 341 329 317 317 314 325 331 329 334 354 329 336 354 345 334 331 313 310 306 300 289 285 292 297 298 296 287 300 298 292 297 300 295 285 281 273 265 255 249 237 239 239
337 323 318 336 338 331 336 327 334 5 349 4 15 359 344 337 341 335 317 310 306 301 320 300 287 279 270 269 293 318 300 287 294 294 292 289 274 252 235 227 234 225 223
340 337 345 320 324 317 323 319 349 34 62 47 16 12 354 335 328 310 304 309 308 308 319 294 325 337 332 330 13 323 311 305 314 317 321 332 258 233 235 232 225 228 220
343 329 327 328 317 346 1 344 14 35 82 104 76 47 348 304 321 320 331 323 317 15 298 322 13 351 7 359 338 317 292 300 309 319 340 342 348 255 242 234 229 219 220
333 357 342 338 348 12 357 4 3 7 5 56 30 8 357 332 334 331 339 325 14 352 17 24 15 19 3 357 359 342 337 340 337 324 343 346 347 354 7 283 222 219 226
356 26 357 342 10 10 357 14 13 8 351 354 4 1 351 339 337 338 340 350 14 356 10 29 10 12 7 355 351 348 340 344 343 337 333 358 356 356 5 10 359 299 211
152 300 327 7 28 18 16 15 15 6 353 354 349 358 349 331 339 342 340 29 7 1 2 26 19 19 11 357 352 350 347 349 341 336 340 343 360 358 12 13 10 10 30
270 189 164 119 96 43 34 23 13 12 358 353 356 3 350 351 3 6 1 8 3 1 3 13 27 18 13 2 355 353 349 353 349 344 337 337 344 357 6 6 14 19 15
299 256 196 168 113 93 74 49 15 12 6 359 1 356 346 3 357 0 353 356 353 350 4 14 21 21 15 2 358 352 350 345 348 341 331 331 330 338 345 354 350 11 358
319 316 319 133 150 131 148 132 87 37 1 351 358 347 344 0 2 355 351 353 349 340 339 6 26 28 14 6 357 351 348 346 343 342 330 328 322 312 306 298 317 316 340
320 305 19 12 105 162 203 152 128 114 10 317 314 339 351 345 345 349 328 338 345 339 322 3 38 31 20 11 6 356 348 339 331 321 324 318 321 343 337 271 260 124 321
318 38 27 16 32 24 357 57 151 178 179 258 286 308 315 338 317 308 316 325 301 300 300 358 47 33 21 14 6 357 345 329 322 319 317 307 341 349 353 356 334 283 261
27 47 26 2 50 47 37 16 28 47 188 244 273 263 276 280 292 306 329 345 353 1 19 62 40 30 18 8 4 356 342 340 335 332 326 316 356 357 354 354 3 358 4
60 50 16 22 54 53 47 28 17 24 2 355 355 5 10 18 23 11 6 14 4 11 12 24 57 42 20 5 358 353 349 346 346 343 335 352 358 359 353 360 1 7 360